| time (UTC) | temp F | wind direction | speed MPH | gust MPH | rain 1hr in | rain 24hr in | rain mn in | humidity % | barometer mb |
| 20260510074545 | 58 | 31 | 15.0 | 25.0 | 0.00 | 0.00 | 0.00 | 70 | |
| 20260510073533 | 58 | 20 | 14.0 | 21.0 | 0.00 | 0.00 | 0.00 | 71 | |
| 20260510072536 | 57 | 25 | 14.0 | 25.0 | 0.00 | 0.00 | 0.00 | 72 | |
| 20260510071549 | 57 | 55 | 14.0 | 22.0 | 0.00 | 0.00 | 0.00 | 73 | |
| 20260510070531 | 57 | 54 | 11.0 | 19.0 | 0.00 | 0.00 | 0.00 | 74 | |
| 20260510065525 | 56 | 30 | 14.0 | 24.0 | 0.00 | 0.00 | 0.00 | 75 | |
| 20260510064528 | 56 | 48 | 12.0 | 19.0 | 0.00 | 0.00 | 0.00 | 76 | |
| 20260510063521 | 55 | 30 | 13.0 | 19.0 | 0.00 | 0.00 | 0.00 | 78 | |
| 20260510062520 | 55 | 9 | 10.0 | 21.0 | 0.00 | 0.00 | 0.00 | 80 | |
| 20260510061533 | 54 | 34 | 10.0 | 18.0 | 0.00 | 0.00 | 0.00 | 82 | |
| 20260510060516 | 53 | 34 | 10.0 | 20.0 | 0.00 | 0.00 | 0.00 | 85 | |
| 20260510055550 | 53 | 50 | 11.0 | 18.0 | 0.00 | 0.00 | 0.00 | 86 | |
| 20260510054544 | 52 | 46 | 9.0 | 16.0 | 0.00 | 0.00 | 0.00 | 87 | |
| 20260510053526 | 52 | 32 | 9.0 | 16.0 | 0.00 | 0.00 | 0.00 | 88 | |
| 20260510052538 | 51 | 39 | 10.0 | 18.0 | 0.00 | 0.00 | 0.00 | 89 | |
| 20260510051517 | 51 | 24 | 8.0 | 13.0 | 0.00 | 0.00 | 0.00 | 89 | |
| 20260510050530 | 50 | 12 | 7.0 | 11.0 | 0.00 | 0.00 | 0.00 | 89 | |
| 20260510045600 | 50 | 350 | 7.0 | 12.0 | 0.00 | 0.00 | 0.00 | 89 | |
| 20260510044522 | 50 | 29 | 6.0 | 9.0 | 0.00 | 0.00 | 0.00 | 88 | |
| 20260510043535 | 50 | 5 | 6.0 | 10.0 | 0.00 | 0.00 | 0.00 | 88 | |
| 20260510042539 | 50 | 25 | 6.0 | 10.0 | 0.00 | 0.00 | 0.00 | 88 | |
| 20260510041527 | 50 | 24 | 7.0 | 11.0 | 0.00 | 0.00 | 0.00 | 88 | |
| 20260510040530 | 50 | 30 | 8.0 | 13.0 | 0.00 | 0.00 | 0.00 | 88 | |
| 20260510035524 | 50 | 18 | 8.0 | 12.0 | 0.00 | 0.00 | 0.00 | 88 | |
| 20260510034527 | 50 | 37 | 7.0 | 12.0 | 0.00 | 0.00 | 0.00 | 88 | |
| 20260510033541 | 50 | 19 | 6.0 | 11.0 | 0.00 | 0.00 | 0.00 | 88 | |
| 20260510032525 | 50 | 38 | 6.0 | 10.0 | 0.00 | 0.00 | 0.00 | 88 | |
| 20260510031539 | 51 | 22 | 7.0 | 10.0 | 0.00 | 0.00 | 0.00 | 87 | |
| 20260510030521 | 51 | 21 | 6.0 | 11.0 | 0.00 | 0.00 | 0.00 | 87 | |
| 20260510025551 | 51 | 22 | 7.0 | 12.0 | 0.00 | 0.00 | 0.00 | 88 | |
| 20260510024544 | 51 | 31 | 7.0 | 12.0 | 0.00 | 0.00 | 0.00 | 88 | |
| 20260510023528 | 51 | 36 | 7.0 | 9.0 | 0.00 | 0.00 | 0.00 | 88 | |
| 20260510022540 | 51 | 28 | 5.0 | 8.0 | 0.00 | 0.00 | 0.00 | 88 | |
| 20260510021524 | 51 | 34 | 6.0 | 9.0 | 0.00 | 0.00 | 0.00 | 88 | |
| 20260510020528 | 51 | 19 | 6.0 | 10.0 | 0.00 | 0.00 | 0.00 | 88 | |
| 20260510015521 | 51 | 18 | 6.0 | 9.0 | 0.00 | 0.00 | 0.00 | 87 | |
| 20260510014521 | 51 | 17 | 5.0 | 8.0 | 0.00 | 0.00 | 0.00 | 87 | |
| 20260510013555 | 50 | 18 | 5.0 | 8.0 | 0.00 | 0.00 | 0.00 | 87 | |
| 20260510012518 | 50 | 20 | 6.0 | 9.0 | 0.00 | 0.00 | 0.00 | 86 | |
| 20260510011531 | 50 | 15 | 6.0 | 9.0 | 0.00 | 0.00 | 0.00 | 86 | |
| 20260510010546 | 51 | 17 | 6.0 | 9.0 | 0.00 | 0.00 | 0.00 | 85 | |
| 20260510005549 | 51 | 16 | 6.0 | 9.0 | 0.00 | 0.00 | 0.00 | 85 | |
| 20260510004541 | 51 | 29 | 6.0 | 10.0 | 0.00 | 0.00 | 0.00 | 84 | |
| 20260510003521 | 52 | 23 | 5.0 | 8.0 | 0.00 | 0.00 | 0.00 | 84 | |
| 20260510002534 | 52 | 26 | 4.0 | 8.0 | 0.00 | 0.00 | 0.00 | 83 | |
| 20260510001518 | 52 | 19 | 4.0 | 9.0 | 0.00 | 0.00 | 0.00 | 83 | |
| 20260510000530 | 52 | 28 | 6.0 | 10.0 | 0.00 | 0.00 | 0.00 | 83 | |
| 20260509235534 | 52 | 32 | 8.0 | 11.0 | 0.00 | 0.00 | 0.00 | 82 | |
| 20260509234527 | 52 | 34 | 6.0 | 9.0 | 0.00 | 0.00 | 0.00 | 82 | |
| 20260509233531 | 53 | 24 | 7.0 | 11.0 | 0.00 | 0.00 | 0.00 | 81 | |
| 20260509232525 | 53 | 24 | 8.0 | 11.0 | 0.00 | 0.00 | 0.00 | 80 | |
| 20260509231524 | 53 | 24 | 8.0 | 12.0 | 0.00 | 0.00 | 0.00 | 80 | |
| 20260509230537 | 53 | 34 | 8.0 | 12.0 | 0.00 | 0.00 | 0.00 | 80 | |
| 20260509225520 | 53 | 28 | 8.0 | 13.0 | 0.00 | 0.00 | 0.00 | 79 | |
| 20260509224524 | 53 | 32 | 8.0 | 12.0 | 0.00 | 0.00 | 0.00 | 79 | |
| 20260509223518 | 53 | 28 | 8.0 | 13.0 | 0.00 | 0.00 | 0.00 | 79 | |
| 20260509222522 | 53 | 30 | 7.0 | 13.0 | 0.00 | 0.00 | 0.00 | 79 | |
| 20260509221556 | 53 | 360 | 8.0 | 11.0 | 0.00 | 0.00 | 0.00 | 78 | |
| 20260509220541 | 53 | 13 | 7.0 | 12.0 | 0.00 | 0.00 | 0.00 | 78 | |
| 20260509215522 | 53 | 360 | 7.0 | 11.0 | 0.00 | 0.00 | 0.00 | 78 | |
| 20260509214536 | 53 | 13 | 8.0 | 11.0 | 0.00 | 0.00 | 0.00 | 77 | |
| 20260509213521 | 53 | 15 | 6.0 | 11.0 | 0.00 | 0.00 | 0.00 | 77 | |
| 20260509212534 | 53 | 23 | 6.0 | 11.0 | 0.00 | 0.00 | 0.00 | 77 | |
| 20260509211518 | 53 | 28 | 7.0 | 10.0 | 0.00 | 0.00 | 0.00 | 77 | |
| 20260509210523 | 54 | 14 | 7.0 | 10.0 | 0.00 | 0.00 | 0.00 | 76 | |
| 20260509205536 | 54 | 11 | 7.0 | 9.0 | 0.00 | 0.00 | 0.00 | 75 | |
| 20260509204546 | 55 | 15 | 6.0 | 9.0 | 0.00 | 0.00 | 0.00 | 74 | |
| 20260509203551 | 55 | 22 | 8.0 | 10.0 | 0.00 | 0.00 | 0.00 | 73 | |
| 20260509202523 | 56 | 22 | 7.0 | 9.0 | 0.00 | 0.00 | 0.00 | 72 | |
| 20260509201526 | 56 | 30 | 5.0 | 8.0 | 0.00 | 0.00 | 0.00 | 71 | |
| 20260509200539 | 56 | 32 | 5.0 | 11.0 | 0.00 | 0.00 | 0.00 | 71 | |
| 20260509195524 | 57 | 36 | 6.0 | 11.0 | 0.00 | 0.00 | 0.00 | 70 | |
| 20260509194537 | 57 | 5 | 7.0 | 10.0 | 0.00 | 0.00 | 0.00 | 70 | |
| 20260509193521 | 57 | 19 | 7.0 | 10.0 | 0.00 | 0.00 | 0.00 | 70 | |
| 20260509192521 | 58 | 20 | 6.0 | 11.0 | 0.00 | 0.00 | 0.00 | 70 | |
| 20260509191534 | 58 | 14 | 7.0 | 10.0 | 0.00 | 0.00 | 0.00 | 69 | |
| 20260509190518 | 59 | 9 | 8.0 | 10.0 | 0.00 | 0.00 | 0.00 | 68 | |
| 20260509185531 | 60 | 16 | 9.0 | 13.0 | 0.00 | 0.00 | 0.00 | 67 | |
| 20260509184535 | 60 | 9 | 9.0 | 14.0 | 0.00 | 0.00 | 0.00 | 66 | |
| 20260509183529 | 61 | 37 | 9.0 | 13.0 | 0.00 | 0.00 | 0.00 | 65 | |
| 20260509182532 | 62 | 22 | 7.0 | 14.0 | 0.00 | 0.00 | 0.00 | 65 | |
| 20260509181542 | 63 | 22 | 10.0 | 16.0 | 0.00 | 0.00 | 0.00 | 63 | |
| 20260509180526 | 63 | 11 | 9.0 | 14.0 | 0.00 | 0.00 | 0.00 | 63 | |
| 20260509175538 | 64 | 44 | 9.0 | 15.0 | 0.00 | 0.00 | 0.00 | 63 | |
| 20260509174523 | 64 | 10 | 9.0 | 18.0 | 0.00 | 0.00 | 0.00 | 62 | |
| 20260509173527 | 65 | 5 | 11.0 | 18.0 | 0.00 | 0.00 | 0.00 | 61 | |
| 20260509172540 | 65 | 360 | 8.0 | 18.0 | 0.00 | 0.00 | 0.00 | 63 | |
| 20260509171532 | 66 | 14 | 10.0 | 19.0 | 0.00 | 0.00 | 0.00 | 61 | |
| 20260509170536 | 66 | 13 | 11.0 | 19.0 | 0.00 | 0.00 | 0.00 | 61 | |
| 20260509165527 | 67 | 19 | 11.0 | 18.0 | 0.00 | 0.00 | 0.00 | 61 | |
| 20260509164531 | 67 | 17 | 9.0 | 18.0 | 0.00 | 0.00 | 0.00 | 60 | |
| 20260509163543 | 67 | 5 | 15.0 | 21.0 | 0.00 | 0.00 | 0.00 | 59 | |
| 20260509162527 | 68 | 5 | 12.0 | 20.0 | 0.00 | 0.00 | 0.00 | 58 | |
| 20260509161541 | 69 | 15 | 11.0 | 21.0 | 0.00 | 0.00 | 0.00 | 60 | |
| 20260509160525 | 69 | 31 | 14.0 | 21.0 | 0.00 | 0.00 | 0.00 | 58 | |
| 20260509155529 | 69 | 17 | 14.0 | 23.0 | 0.00 | 0.00 | 0.00 | 58 | |
| 20260509154521 | 69 | 24 | 12.0 | 19.0 | 0.00 | 0.00 | 0.00 | 58 | |
| 20260509153522 | 70 | 30 | 7.0 | 15.0 | 0.00 | 0.00 | 0.00 | 54 | |
| 20260509152556 | 70 | 24 | 9.0 | 18.0 | 0.00 | 0.00 | 0.00 | 53 | |
| 20260509151530 | 70 | 30 | 6.0 | 13.0 | 0.00 | 0.00 | 0.00 | 55 | |
| 20260509150553 | 69 | 40 | 6.0 | 12.0 | 0.00 | 0.00 | 0.00 | 55 | |
| 20260509145525 | 69 | 46 | 9.0 | 16.0 | 0.00 | 0.00 | 0.00 | 54 | |
| 20260509144530 | 70 | 56 | 8.0 | 15.0 | 0.00 | 0.00 | 0.00 | 53 | |
| 20260509143519 | 69 | 55 | 10.0 | 16.0 | 0.00 | 0.00 | 0.00 | 54 | |
| 20260509142519 | 69 | 82 | 7.0 | 12.0 | 0.00 | 0.00 | 0.00 | 55 | |
| 20260509141533 | 69 | 44 | 10.0 | 15.0 | 0.00 | 0.00 | 0.00 | 54 | |
| 20260509140607 | 70 | 89 | 9.0 | 13.0 | 0.00 | 0.00 | 0.00 | 56 | |
| 20260509135531 | 70 | 76 | 5.0 | 10.0 | 0.00 | 0.00 | 0.00 | 55 | |
| 20260509134543 | 69 | 54 | 4.0 | 14.0 | 0.00 | 0.00 | 0.00 | 54 | |
| 20260509133527 | 70 | 67 | 10.0 | 16.0 | 0.00 | 0.00 | 0.00 | 54 | |
| 20260509132532 | 70 | 76 | 7.0 | 14.0 | 0.00 | 0.00 | 0.00 | 56 | |
| 20260509131524 | 70 | 40 | 8.0 | 21.0 | 0.00 | 0.00 | 0.00 | 53 | |
| 20260509130524 | 69 | 86 | 8.0 | 15.0 | 0.00 | 0.00 | 0.00 | 56 | |
| 20260509125558 | 69 | 52 | 9.0 | 16.0 | 0.00 | 0.00 | 0.00 | 53 | |
| 20260509124522 | 69 | 45 | 3.0 | 15.0 | 0.00 | 0.00 | 0.00 | 55 | |
| 20260509123534 | 68 | 99 | 8.0 | 13.0 | 0.00 | 0.00 | 0.00 | 56 | |
| 20260509122518 | 70 | 53 | 10.0 | 13.0 | 0.00 | 0.00 | 0.00 | 54 | |
| 20260509121532 | 70 | 37 | 7.0 | 12.0 | 0.00 | 0.00 | 0.00 | 55 | |
| 20260509120536 | 70 | 71 | 9.0 | 12.0 | 0.00 | 0.00 | 0.00 | 55 | |
| 20260509115524 | 69 | 105 | 4.0 | 10.0 | 0.00 | 0.00 | 0.00 | 56 | |
| 20260509114529 | 69 | 60 | 1.0 | 14.0 | 0.00 | 0.00 | 0.00 | 54 | |
| 20260509113542 | 69 | 40 | 6.0 | 15.0 | 0.00 | 0.00 | 0.00 | 55 | |
| 20260509112526 | 69 | 40 | 9.0 | 13.0 | 0.00 | 0.00 | 0.00 | 54 | |
| 20260509111540 | 69 | 83 | 9.0 | 14.0 | 0.00 | 0.00 | 0.00 | 55 | |
| 20260509110525 | 69 | 50 | 4.0 | 16.0 | 0.00 | 0.00 | 0.00 | 55 | |
| 20260509105538 | 68 | 67 | 8.0 | 14.0 | 0.00 | 0.00 | 0.00 | 56 | |
| 20260509104522 | 68 | 58 | 10.0 | 16.0 | 0.00 | 0.00 | 0.00 | 54 | |
| 20260509103522 | 68 | 76 | 8.0 | 16.0 | 0.00 | 0.00 | 0.00 | 57 | |
| 20260509102556 | 68 | 65 | 8.0 | 15.0 | 0.00 | 0.00 | 0.00 | 58 | |
| 20260509101528 | 68 | 98 | 8.0 | 15.0 | 0.00 | 0.00 | 0.00 | 56 | |
| 20260509100533 | 67 | 42 | 8.0 | 14.0 | 0.00 | 0.00 | 0.00 | 57 | |
| 20260509095546 | 67 | 58 | 10.0 | 16.0 | 0.00 | 0.00 | 0.00 | 57 | |
| 20260509094530 | 67 | 80 | 11.0 | 15.0 | 0.00 | 0.00 | 0.00 | 56 | |
| 20260509093523 | 67 | 80 | 9.0 | 16.0 | 0.00 | 0.00 | 0.00 | 57 | |
| 20260509092553 | 66 | 87 | 10.0 | 13.0 | 0.00 | 0.00 | 0.00 | 60 | |
| 20260509091536 | 65 | 109 | 11.0 | 14.0 | 0.00 | 0.00 | 0.00 | 61 | |
| 20260509090519 | 65 | 105 | 10.0 | 13.0 | 0.00 | 0.00 | 0.00 | 62 | |
| 20260509085532 | 65 | 94 | 11.0 | 14.0 | 0.00 | 0.00 | 0.00 | 63 | |
| 20260509084546 | 64 | 95 | 10.0 | 14.0 | 0.00 | 0.00 | 0.00 | 63 | |
| 20260509083531 | 64 | 78 | 9.0 | 14.0 | 0.00 | 0.00 | 0.00 | 63 | |
| 20260509082544 | 63 | 108 | 11.0 | 15.0 | 0.00 | 0.00 | 0.00 | 63 | |
| 20260509081543 | 63 | 105 | 11.0 | 16.0 | 0.00 | 0.00 | 0.00 | 63 | |
| 20260509080555 | 63 | 86 | 10.0 | 13.0 | 0.00 | 0.00 | 0.00 | 64 | |
| 20260509075547 | 63 | 72 | 9.0 | 13.0 | 0.00 | 0.00 | 0.00 | 65 |